Time,TemperatureF,DewpointF,PressureIn,WindDirection,WindDirectionDegrees,WindSpeedMPH,WindSpeedGustMPH,Humidity,HourlyPrecipIn,Conditions,Clouds,dailyrainin,SoftwareType,DateUTC
2013-02-26 00:22:00,39.0,39.0,29.90,SE,140,10.0,22.0,100,-99.99,,,-99.99,,2013-02-26 05:22:00,
2013-02-26 00:32:00,39.0,39.0,29.90,SE,140,10.0,22.0,100,-99.99,,,-99.99,,2013-02-26 05:32:00,
2013-02-26 00:43:00,39.0,39.0,29.90,SE,140,10.0,22.0,100,-99.99,,,-99.99,,2013-02-26 05:43:00,
2013-02-26 00:52:00,39.0,39.0,29.90,SE,140,10.0,22.0,100,-99.99,,,-99.99,,2013-02-26 05:52:00,
2013-02-26 01:22:00,39.0,39.0,29.87,SSE,160,14.0,23.0,100,-99.99,,,-99.99,,2013-02-26 06:22:00,
2013-02-26 01:32:00,39.0,39.0,29.87,SSE,160,14.0,23.0,100,-99.99,,,-99.99,,2013-02-26 06:32:00,
2013-02-26 01:42:00,39.0,39.0,29.87,SSE,160,14.0,23.0,100,-99.99,,,-99.99,,2013-02-26 06:42:00,
2013-02-26 01:52:00,39.0,39.0,29.87,SSE,160,14.0,23.0,100,-99.99,,,-99.99,,2013-02-26 06:52:00,
2013-02-26 03:11:00,41.0,41.0,29.81,SE,130,10.0,23.0,100,-99.99,,,-99.99,,2013-02-26 08:11:00,
2013-02-26 03:21:00,41.0,41.0,29.81,SE,130,10.0,23.0,100,-99.99,,,-99.99,,2013-02-26 08:21:00,
2013-02-26 03:32:00,41.0,41.0,29.81,SE,130,10.0,23.0,100,-99.99,,,-99.99,,2013-02-26 08:32:00,
2013-02-26 03:42:00,41.0,41.0,29.81,SE,130,10.0,23.0,100,-99.99,,,-99.99,,2013-02-26 08:42:00,
2013-02-26 03:52:00,41.0,41.0,29.81,SE,130,10.0,23.0,100,-99.99,,,-99.99,,2013-02-26 08:52:00,
2013-02-26 04:11:00,41.0,39.0,29.81,SE,130,14.0,24.0,93,-99.99,,,-99.99,,2013-02-26 09:11:00,
2013-02-26 04:21:00,41.0,39.0,29.81,SE,130,14.0,24.0,93,-99.99,,,-99.99,,2013-02-26 09:21:00,
2013-02-26 04:32:00,41.0,39.0,29.81,SE,130,14.0,24.0,93,-99.99,,,-99.99,,2013-02-26 09:32:00,
2013-02-26 04:43:00,41.0,39.0,29.81,SE,130,14.0,24.0,93,-99.99,,,-99.99,,2013-02-26 09:43:00,
2013-02-26 04:51:00,41.0,39.0,29.81,SE,130,14.0,24.0,93,-99.99,,,-99.99,,2013-02-26 09:51:00,
2013-02-26 05:11:00,39.0,39.0,29.78,SSE,160,12.0,31.0,100,-99.99,,,-99.99,,2013-02-26 10:11:00,
2013-02-26 05:21:00,39.0,39.0,29.78,SSE,160,12.0,31.0,100,-99.99,,,-99.99,,2013-02-26 10:21:00,
2013-02-26 05:32:00,39.0,39.0,29.78,SSE,160,12.0,31.0,100,-99.99,,,-99.99,,2013-02-26 10:32:00,
2013-02-26 05:42:00,39.0,39.0,29.78,SSE,160,12.0,31.0,100,-99.99,,,-99.99,,2013-02-26 10:42:00,
2013-02-26 05:52:00,39.0,39.0,29.78,SSE,160,12.0,31.0,100,-99.99,,,-99.99,,2013-02-26 10:52:00,
2013-02-26 06:12:00,39.0,39.0,29.74,SSE,160,15.0,30.0,100,-99.99,,,-99.99,,2013-02-26 11:12:00,
2013-02-26 06:22:00,39.0,39.0,29.74,SSE,160,15.0,30.0,100,-99.99,,,-99.99,,2013-02-26 11:22:00,
2013-02-26 06:32:00,39.0,39.0,29.74,SSE,160,15.0,30.0,100,-99.99,,,-99.99,,2013-02-26 11:32:00,
2013-02-26 06:42:00,39.0,39.0,29.74,SSE,160,15.0,30.0,100,-99.99,,,-99.99,,2013-02-26 11:42:00,
2013-02-26 06:52:00,39.0,39.0,29.74,SSE,160,15.0,30.0,100,-99.99,,,-99.99,,2013-02-26 11:52:00,
2013-02-26 07:11:00,41.0,41.0,29.71,SSE,160,15.0,33.0,100,-99.99,,,-99.99,,2013-02-26 12:11:00,
2013-02-26 07:22:00,41.0,41.0,29.71,SSE,160,15.0,33.0,100,-99.99,,,-99.99,,2013-02-26 12:22:00,
2013-02-26 07:32:00,41.0,41.0,29.71,SSE,160,15.0,33.0,100,-99.99,,,-99.99,,2013-02-26 12:32:00,
2013-02-26 07:42:00,41.0,41.0,29.71,SSE,160,15.0,33.0,100,-99.99,,,-99.99,,2013-02-26 12:42:00,
2013-02-26 07:52:00,41.0,41.0,29.71,SSE,160,15.0,33.0,100,-99.99,,,-99.99,,2013-02-26 12:52:00,
2013-02-26 08:11:00,41.0,41.0,29.68,SSE,150,20.0,36.0,100,-99.99,,,-99.99,,2013-02-26 13:11:00,
2013-02-26 08:22:00,41.0,41.0,29.68,SSE,150,20.0,36.0,100,-99.99,,,-99.99,,2013-02-26 13:22:00,
2013-02-26 08:32:00,41.0,41.0,29.68,SSE,150,20.0,36.0,100,-99.99,,,-99.99,,2013-02-26 13:32:00,
2013-02-26 08:42:00,41.0,41.0,29.68,SSE,150,20.0,36.0,100,-99.99,,,-99.99,,2013-02-26 13:42:00,
2013-02-26 08:51:00,41.0,41.0,29.68,SSE,150,20.0,36.0,100,-99.99,,,-99.99,,2013-02-26 13:51:00,
2013-02-26 09:22:00,43.0,41.0,29.67,SSE,160,17.0,39.0,93,-99.99,,,-99.99,,2013-02-26 14:22:00,
2013-02-26 09:32:00,43.0,41.0,29.67,SSE,160,17.0,39.0,93,-99.99,,,-99.99,,2013-02-26 14:32:00,
2013-02-26 09:42:00,43.0,41.0,29.67,SSE,160,17.0,39.0,93,-99.99,,,-99.99,,2013-02-26 14:42:00,
2013-02-26 09:52:00,43.0,41.0,29.67,SSE,160,17.0,39.0,93,-99.99,,,-99.99,,2013-02-26 14:52:00,
2013-02-26 10:12:00,43.0,43.0,29.61,SE,140,28.0,43.0,100,-99.99,,,-99.99,,2013-02-26 15:12:00,
2013-02-26 10:22:00,43.0,43.0,29.61,SE,140,28.0,43.0,100,-99.99,,,-99.99,,2013-02-26 15:22:00,
2013-02-26 10:32:00,43.0,43.0,29.61,SE,140,28.0,43.0,100,-99.99,,,-99.99,,2013-02-26 15:32:00,
2013-02-26 10:42:00,43.0,43.0,29.61,SE,140,28.0,43.0,100,-99.99,,,-99.99,,2013-02-26 15:42:00,
2013-02-26 10:52:00,43.0,43.0,29.61,SE,140,28.0,43.0,100,-99.99,,,-99.99,,2013-02-26 15:52:00,
2013-02-26 11:32:00,43.0,43.0,29.61,SSE,160,16.0,24.0,100,-99.99,,,-99.99,,2013-02-26 16:32:00,
2013-02-26 11:42:00,43.0,43.0,29.61,SSE,160,16.0,24.0,100,-99.99,,,-99.99,,2013-02-26 16:42:00,
2013-02-26 11:52:00,43.0,43.0,29.61,SSE,160,16.0,24.0,100,-99.99,,,-99.99,,2013-02-26 16:52:00,
2013-02-26 12:42:00,43.0,43.0,29.61,North,-99,5.0,-999.0,100,-99.99,,,-99.99,,2013-02-26 17:42:00,
2013-02-26 12:52:00,43.0,43.0,29.61,North,-99,5.0,-999.0,100,-99.99,,,-99.99,,2013-02-26 17:52:00,
2013-02-26 13:12:00,43.0,43.0,29.59,ESE,110,6.0,-999.0,100,-99.99,,,-99.99,,2013-02-26 18:12:00,
2013-02-26 13:21:00,43.0,43.0,29.59,ESE,110,6.0,-999.0,100,-99.99,,,-99.99,,2013-02-26 18:21:00,
2013-02-26 13:32:00,43.0,43.0,29.59,ESE,110,6.0,-999.0,100,-99.99,,,-99.99,,2013-02-26 18:32:00,
2013-02-26 13:42:00,43.0,43.0,29.59,ESE,110,6.0,-999.0,100,-99.99,,,-99.99,,2013-02-26 18:42:00,
2013-02-26 13:52:00,43.0,43.0,29.59,ESE,110,6.0,-999.0,100,-99.99,,,-99.99,,2013-02-26 18:52:00,
2013-02-26 14:11:00,45.0,45.0,29.55,SE,140,9.0,-999.0,100,-99.99,,,-99.99,,2013-02-26 19:11:00,
2013-02-26 14:22:00,45.0,45.0,29.55,SE,140,9.0,-999.0,100,-99.99,,,-99.99,,2013-02-26 19:22:00,
2013-02-26 14:32:00,45.0,45.0,29.55,SE,140,9.0,-999.0,100,-99.99,,,-99.99,,2013-02-26 19:32:00,
2013-02-26 14:42:00,45.0,45.0,29.55,SE,140,9.0,-999.0,100,-99.99,,,-99.99,,2013-02-26 19:42:00,
2013-02-26 14:52:00,45.0,45.0,29.55,SE,140,9.0,-999.0,100,-99.99,,,-99.99,,2013-02-26 19:52:00,
2013-02-26 15:11:00,50.0,46.0,29.56,SW,230,12.0,16.0,87,-99.99,,,-99.99,,2013-02-26 20:11:00,
2013-02-26 15:22:00,50.0,46.0,29.56,SW,230,12.0,16.0,87,-99.99,,,-99.99,,2013-02-26 20:22:00,
2013-02-26 15:32:00,50.0,46.0,29.56,SW,230,12.0,16.0,87,-99.99,,,-99.99,,2013-02-26 20:32:00,
2013-02-26 15:41:00,50.0,46.0,29.56,SW,230,12.0,16.0,87,-99.99,,,-99.99,,2013-02-26 20:41:00,
2013-02-26 15:52:00,50.0,46.0,29.56,SW,230,12.0,16.0,87,-99.99,,,-99.99,,2013-02-26 20:52:00,
2013-02-26 16:21:00,50.0,43.0,29.56,SSW,210,8.0,-999.0,76,-99.99,,,-99.99,,2013-02-26 21:21:00,
2013-02-26 16:31:00,50.0,43.0,29.56,SSW,210,8.0,-999.0,76,-99.99,,,-99.99,,2013-02-26 21:31:00,
2013-02-26 16:41:00,50.0,43.0,29.56,SSW,210,8.0,-999.0,76,-99.99,,,-99.99,,2013-02-26 21:41:00,
2013-02-26 16:51:00,50.0,43.0,29.56,SSW,210,8.0,-999.0,76,-99.99,,,-99.99,,2013-02-26 21:51:00,
2013-02-26 17:21:00,46.0,39.0,29.57,WSW,240,6.0,-999.0,75,-99.99,,,-99.99,,2013-02-26 22:21:00,
2013-02-26 17:32:00,46.0,39.0,29.57,WSW,240,6.0,-999.0,75,-99.99,,,-99.99,,2013-02-26 22:32:00,
2013-02-26 17:42:00,46.0,39.0,29.57,WSW,240,6.0,-999.0,75,-99.99,,,-99.99,,2013-02-26 22:42:00,
2013-02-26 17:51:00,46.0,39.0,29.57,WSW,240,6.0,-999.0,75,-99.99,,,-99.99,,2013-02-26 22:51:00,
2013-02-26 18:11:00,46.0,39.0,29.59,WSW,240,7.0,-999.0,75,-99.99,,,-99.99,,2013-02-26 23:11:00,
2013-02-26 18:21:00,46.0,39.0,29.59,WSW,240,7.0,-999.0,75,-99.99,,,-99.99,,2013-02-26 23:21:00,
2013-02-26 18:32:00,46.0,39.0,29.59,WSW,240,7.0,-999.0,75,-99.99,,,-99.99,,2013-02-26 23:32:00,
2013-02-26 18:42:00,46.0,39.0,29.59,WSW,240,7.0,-999.0,75,-99.99,,,-99.99,,2013-02-26 23:42:00,
2013-02-26 18:52:00,46.0,39.0,29.59,WSW,240,7.0,-999.0,75,-99.99,,,-99.99,,2013-02-26 23:52:00,
2013-02-26 19:11:00,45.0,39.0,29.61,SW,220,15.0,20.0,81,-99.99,,,-99.99,,2013-02-27 00:11:00,
2013-02-26 19:22:00,45.0,39.0,29.61,SW,220,15.0,20.0,81,-99.99,,,-99.99,,2013-02-27 00:22:00,
2013-02-26 19:32:00,45.0,39.0,29.61,SW,220,15.0,20.0,81,-99.99,,,-99.99,,2013-02-27 00:32:00,
2013-02-26 19:42:00,45.0,39.0,29.61,SW,220,15.0,20.0,81,-99.99,,,-99.99,,2013-02-27 00:42:00,
2013-02-26 19:51:00,45.0,39.0,29.61,SW,220,15.0,20.0,81,-99.99,,,-99.99,,2013-02-27 00:51:00,
2013-02-26 20:22:00,43.0,37.0,29.64,North,-99,7.0,-999.0,81,-99.99,,,-99.99,,2013-02-27 01:22:00,
2013-02-26 20:32:00,43.0,37.0,29.64,North,-99,7.0,-999.0,81,-99.99,,,-99.99,,2013-02-27 01:32:00,
2013-02-26 20:42:00,43.0,37.0,29.64,North,-99,7.0,-999.0,81,-99.99,,,-99.99,,2013-02-27 01:42:00,
2013-02-26 20:51:00,43.0,37.0,29.64,North,-99,7.0,-999.0,81,-99.99,,,-99.99,,2013-02-27 01:51:00,
2013-02-26 21:42:00,43.0,37.0,29.65,North,0,0.0,-999.0,81,-99.99,,,-99.99,,2013-02-27 02:42:00,
2013-02-26 21:52:00,43.0,37.0,29.65,North,0,0.0,-999.0,81,-99.99,,,-99.99,,2013-02-27 02:52:00,
2013-02-26 22:11:00,41.0,36.0,29.65,North,-99,7.0,-999.0,80,-99.99,,,-99.99,,2013-02-27 03:11:00,
2013-02-26 22:22:00,41.0,36.0,29.65,North,-99,7.0,-999.0,80,-99.99,,,-99.99,,2013-02-27 03:22:00,
2013-02-26 22:32:00,41.0,36.0,29.65,North,-99,7.0,-999.0,80,-99.99,,,-99.99,,2013-02-27 03:32:00,
2013-02-26 22:42:00,41.0,36.0,29.65,North,-99,7.0,-999.0,80,-99.99,,,-99.99,,2013-02-27 03:42:00,
2013-02-26 22:52:00,41.0,36.0,29.65,North,-99,7.0,-999.0,80,-99.99,,,-99.99,,2013-02-27 03:52:00,
2013-02-26 23:12:00,39.0,34.0,29.67,North,-99,7.0,-999.0,80,-99.99,,,-99.99,,2013-02-27 04:12:00,
2013-02-26 23:22:00,39.0,34.0,29.67,North,-99,7.0,-999.0,80,-99.99,,,-99.99,,2013-02-27 04:22:00,
2013-02-26 23:32:00,39.0,34.0,29.67,North,-99,7.0,-999.0,80,-99.99,,,-99.99,,2013-02-27 04:32:00,
2013-02-26 23:42:00,39.0,34.0,29.67,North,-99,7.0,-999.0,80,-99.99,,,-99.99,,2013-02-27 04:42:00,
2013-02-26 23:52:00,39.0,34.0,29.67,North,-99,7.0,-999.0,80,-99.99,,,-99.99,,2013-02-27 04:52:00,